Content
SEND FEEDBACK

Daily
Averages
Monthly
Summary
Canada

DELTA, BRITISH COLUMBIA


Home > North America > Canada > British Columbia
Elevation: 30 feet     Latitude: 49 10N     Longitude: 123 10W

WEATHER
 
SELECT A DAY
Number of Records: 253,003;   Date Range: 5/15/97 - 10/21/14
 
SHARE

PRINT THIS DATA

[ ← Previous Day ]
WEATHER ALMANAC - JANUARY 23, 2013
[ Next Day → ]
[ °C ]   °F
Weather ElementAverageHighLow
Temperature41.1 °F44.6 °F (11:55 am)37.4 °F (12:35 am)
Dewpoint38.6 °F42.8 °F (1:35 pm)33.8 °F (8:15 am)
Humidity90.7 %100 % (11:15 am)81 % (6:15 am)
Barometer29.89 in30.08 in (11:55 pm)29.79 in (12:35 pm)
Wind Speed5.8 mph15 mph (5:55 pm)
Wind Gust23 mph (5:55 pm)
Weather ElementAverage
Visibility8.2 mi
Wind DirectionESE (113.4 °)

Weather ElementTotal
Precipitation0.05 in
Heating Degree Days24 (Base 65)
Averaged from 64 records on January 23, 2013
WEATHER CONDITIONS BREAKOUT
WIND DIRECTION BREAKOUT
WEATHER BY HOUR - JANUARY 23, 2013
[ °C ]   °F
Local TimeTemperatureDewpointHumidityBarometerVisibilityWind DirectionWind SpeedGust SpeedPrecipitationEventsConditions
12:35 AM37.4 °F35.6 °F93 %29.92 in9.0 miCalmClear
12:55 AM37.4 °F35.6 °F93 %29.92 in6.0 miCalmClear
1:15 AM37.4 °F35.6 °F93 %29.91 in8.0 miCalmPartly Cloudy
1:35 AM39.2 °F35.6 °F87 %29.90 in10.0 miNorth (360°)3.5 mphScattered Clouds
2:15 AM39.2 °F35.6 °F87 %29.92 in10.0 miCalmMostly Cloudy
2:35 AM39.2 °F35.6 °F87 %29.92 in10.0 miCalmMostly Cloudy
3:15 AM37.4 °F35.6 °F93 %29.92 in10.0 miCalmPartly Cloudy
3:35 AM37.4 °F35.6 °F93 %29.92 in10.0 miCalmClear
3:55 AM37.4 °F35.6 °F93 %29.91 in10.0 miCalmClear
4:15 AM37.4 °F35.6 °F93 %29.92 in10.0 miCalmClear
4:35 AM37.4 °F35.6 °F93 %29.91 in10.0 miCalmClear
4:55 AM37.4 °F35.6 °F93 %29.90 in10.0 miCalmClear
5:15 AM37.4 °F35.6 °F93 %29.89 in10.0 miCalmScattered Clouds
5:35 AM39.2 °F37.4 °F93 %29.87 in10.0 miNNE (30°)5.8 mphMostly Cloudy
5:55 AM41.0 °F37.4 °F87 %29.86 in10.0 miNNE (20°)8.1 mphMostly Cloudy
6:15 AM41.0 °F35.6 °F81 %29.84 in10.0 miNNE (30°)6.9 mph16.1 mphPartly Cloudy
6:35 AM41.0 °F37.4 °F87 %29.85 in10.0 miNE (50°)9.2 mphClear
6:55 AM39.2 °F35.6 °F87 %29.86 in10.0 miEast (90°)5.8 mphPartly Cloudy
7:15 AM39.2 °F35.6 °F87 %29.86 in9.0 miEast (80°)5.8 mphRainLight Rain
7:35 AM39.2 °F35.6 °F87 %29.85 in10.0 miENE (60°)6.9 mphRainLight Rain
7:55 AM39.2 °F35.6 °F87 %29.85 in10.0 miCalmScattered Clouds
8:15 AM39.2 °F33.8 °F81 %29.85 in10.0 miCalmMostly Cloudy
8:55 AM39.2 °F33.8 °F81 %29.85 in7.0 miCalmRainLight Rain
9:15 AM39.2 °F35.6 °F87 %29.85 in7.0 miCalmRainLight Rain
9:35 AM39.2 °F35.6 °F87 %29.85 in5.0 miCalmRainLight Rain
9:55 AM39.2 °F37.4 °F93 %29.84 in6.0 miCalmRainLight Rain
10:15 AM39.2 °F37.4 °F93 %29.83 in6.0 miCalmRainLight Rain
10:35 AM39.2 °F37.4 °F93 %29.83 in5.0 miCalmRainLight Rain
10:55 AM39.2 °F37.4 °F93 %29.82 in6.0 miCalmRainLight Rain
11:15 AM39.2 °F39.2 °F100 %29.82 in5.0 miCalmRainLight Rain
11:55 AM44.6 °F41.0 °F87 %29.81 in9.0 miSSW (200°)6.9 mphRainLight Rain
12:15 PM44.6 °F41.0 °F87 %29.80 in9.0 miSSW (200°)9.2 mphOvercast
12:35 PM44.6 °F41.0 °F87 %29.79 in6.0 miSSW (210°)8.1 mphRainLight Rain
12:55 PM44.6 °F41.0 °F87 %29.79 in5.0 miSSW (210°)12.7 mphOvercast
1:35 PM44.6 °F42.8 °F93 %29.79 in6.0 miSSW (200°)11.5 mph16.1 mphRainLight Rain
1:55 PM44.6 °F42.8 °F93 %29.80 in5.0 miSSW (200°)10.4 mph19.6 mphOvercast
2:15 PM44.6 °F42.8 °F93 %29.81 in4.0 miSW (230°)4.6 mphRainRain
2:35 PM42.8 °F41.0 °F93 %29.81 in3.0 miWest (270°)5.8 mphRainRain
2:55 PM41.0 °F41.0 °F100 %29.82 in3.0 miCalm0.01 inRainRain
3:15 PM42.8 °F42.8 °F100 %29.83 in2.5 miSouth (180°)5.8 mph0.02 inRainRain
3:35 PM42.8 °F42.8 °F100 %29.83 in3.0 miSouth (180°)5.8 mph0.02 inRainLight Rain
4:15 PM42.8 °F41.0 °F93 %29.84 in3.0 miSW (220°)12.7 mph16.1 mphRainLight Rain
4:35 PM42.8 °F41.0 °F93 %29.85 in3.0 miSouth (190°)10.4 mphRainLight Rain
4:55 PM42.8 °F41.0 °F93 %29.85 in5.0 miSouth (190°)11.5 mphRainLight Rain
5:15 PM42.8 °F41.0 °F93 %29.86 in9.0 miSSW (200°)9.2 mphMostly Cloudy
5:35 PM42.8 °F41.0 °F93 %29.86 in10.0 miSSW (200°)11.5 mph17.3 mphMostly Cloudy
5:55 PM42.8 °F41.0 °F93 %29.87 in10.0 miSouth (190°)15.0 mph23.0 mphScattered Clouds
6:15 PM42.8 °F41.0 °F93 %29.88 in10.0 miSouth (190°)12.7 mph18.4 mphScattered Clouds
6:35 PM42.8 °F41.0 °F93 %29.88 in10.0 miSouth (190°)10.4 mph16.1 mphScattered Clouds
6:55 PM42.8 °F41.0 °F93 %29.90 in10.0 miSSW (200°)13.8 mphPartly Cloudy
7:15 PM42.8 °F41.0 °F93 %29.91 in10.0 miSouth (190°)11.5 mphPartly Cloudy
7:35 PM42.8 °F41.0 °F93 %29.92 in9.0 miSSW (200°)10.4 mphRainLight Rain
7:55 PM42.8 °F41.0 °F93 %29.93 in10.0 miSouth (190°)11.5 mphOvercast
8:15 PM42.8 °F41.0 °F93 %29.94 in10.0 miSouth (190°)13.8 mph17.3 mphMostly Cloudy
8:35 PM44.6 °F41.0 °F87 %29.96 in10.0 miSSW (200°)8.1 mphMostly Cloudy
8:55 PM44.6 °F41.0 °F87 %29.97 in10.0 miSouth (180°)10.4 mph16.1 mphOvercast
9:15 PM44.6 °F41.0 °F87 %29.98 in10.0 miSSW (210°)11.5 mph16.1 mphOvercast
9:35 PM44.6 °F41.0 °F87 %29.99 in10.0 miSSW (210°)10.4 mphOvercast
9:55 PM44.6 °F41.0 °F87 %30.00 in10.0 miSouth (190°)8.1 mphOvercast
10:15 PM42.8 °F41.0 °F93 %30.01 in10.0 miSouth (190°)8.1 mphScattered Clouds
10:55 PM41.0 °F39.2 °F93 %30.04 in10.0 miSouth (170°)3.5 mphPartly Cloudy
11:15 PM41.0 °F37.4 °F87 %30.05 in10.0 miSouth (180°)5.8 mphClear
11:35 PM41.0 °F37.4 °F87 %30.06 in10.0 miSSW (200°)9.2 mphPartly Cloudy
11:55 PM41.0 °F37.4 °F87 %30.08 in10.0 miSouth (190°)9.2 mphPartly Cloudy
Hourly data recorded from CZBB, located miles away from Delta, British Columbia







STORIES FROM OUR PARTNERS